Meath Environmental Platform

Observations for Trim Market St

Time AQI Temp °C Hum % Pres Pa CO μg/m³ H₂S μg/m³ NO μg/m³ NO₂ μg/m³ O₃ μg/m³ SO₂ μg/m³ PM1 μg/m³ PM2.5 μg/m³ PM10 μg/m³
Wednesday 8 July 2026
16:17 1 40.5 26 67,139 0 31.4 0 13.67 6.06 8 2.14 5.67 6.23
16:16 1 40.5 26 67,165 0 36.81 0 15.47 6.45 8.57 3.56 6.76 7.44
16:15 1 40.6 26 67,145 0 24.51 0 5.46 7.61 8.93 4.99 7.87 9.3
16:14 1 40.7 26 67,173 0 40.67 0 13.94 14.1 8.7 1.43 5.68 6.24
16:13 1 40.8 26 67,177 0 32.7 0 19.05 22.04 7.76 2.85 6.79 7.47
16:12 1 40.9 25 67,212 0 13.74 0 0 8.62 10.14 2.14 6.25 6.88
16:11 1 41.1 25 67,234 0 20.7 0 5.42 7.75 9.55 3.56 7.36 7.52
16:10 1 41.2 25 67,222 0 27.84 0 10.3 6.94 9.15 2.85 6.81 7.52
16:09 1 41.3 25 67,260 0 25.98 0 9 6.69 9.14 2.85 6.82 7.52
16:08 1 41.4 25 67,278 0 22.92 0 4.69 19.33 10.35 2.14 6.28 6.91
16:07 1 41.5 25 67,300 0 25 0 5.58 12.93 10.35 3.56 6.84 7.52
16:06 1 41.7 25 67,325 0 9.85 0 3.53 0.67 9.98 2.85 5.74 6.32
16:05 1 41.9 24 67,359 0 20.55 0 8.9 3.3 9.28 3.56 7.96 8.42
16:04 1 42.2 24 67,394 0 15.91 0 14.55 0 7.88 2.85 6.87 7.55
16:02 1 42.6 24 67,440 0 12.99 0 6.17 9.39 9.71 2.85 6.88 7.57
16:01 1 42.7 24 67,438 0 12.41 0 5.56 12.7 9.79 2.85 6.89 7.58
16:00 1 42.9 24 67,428 0 8.45 0 8.61 0 9 3.56 7.44 7.52
15:59 1 43 24 67,438 0 9.86 0 5.19 9.13 9.42 3.56 8 8.43
15:58 1 43.2 24 67,451 0 12.44 0 9.23 1.37 8.9 2.14 6.34 6.62
15:57 1 43.2 24 67,465 0 1.82 0 4.83 12.37 8.94 2.85 6.89 7.52